Back to catalog

SL-6 R/B(2)

AliveHEO
NORAD 12827·ROCKET BODY·🇷🇺 Russia

Launched Sep 11, 1981 from Plesetsk Cosmodrome

Loading…

Next Passes (next 24 hours)

TLE

FreshSource: Space-Track

Epoch: Sep 14, 2026, 11:17 UTC

1 12827U 81088F   26257.47080106 -.00000023  00000-0  59570-4 0  9999
2 12827  62.8800 316.0659 4818345 241.8494  61.7413  5.48848779902060

Track SL-6 R/B(2) in real time with AllMySat

Download on the App Store